Location: Newark
(42.7133°N, 87.7910°W)
Time: 16:38:13
(UTC+00:00)

Vanguard 1 - Pass Details

Date: 24 September 2019
Orbit: 653 x 3830 km, 34.2° (Epoch: 20 October)

Event Time Altitude Azimuth Distance (km) Brightness Sun altitude
Rises 12:51:59 0° 282° (WNW) 7,704 14.0 12.2°
Reaches altitude 10° 12:58:17 10° 275° (W) 6,347 13.6 13.3°
Maximum altitude 13:13:54 35° 220° (SW) 3,400 12.8 16.1°
Drops below altitude 10° 13:23:34 10° 158° (SSE) 3,923 13.8 17.8°
Sets 13:26:26 0° 149° (SSE) 4,553 14.3 18.3°
